Weather Roundup
Issued by NWS Chicago, IL

Home | Current Version | Previous Version | Graphics & Text | Print | Product List | Glossary On
Versions: 1 2 3 4 5 6 7 8 9 10 11 12 13 14 15 16 17 18 19 20 21 22 23 24 25 26 27 28 29 30 31 32 33 34 35 36 37 38 39 40 41 42 43 44 45 46 47 48 49 50
000
NZUS59 KLOT 142108
HRRLOT

CHICAGO AREA WEATHER ROUNDUP
NATIONAL WEATHER SERVICE CHICAGO/ROMEOVILLE IL
300 PM CST THU DEC 14 2017

NOTE: "FAIR" INDICATES FEW OR NO CLOUDS BELOW 12,000 FEET WITH NO
SIGNIFICANT WEATHER AND/OR OBSTRUCTIONS TO VISIBILITY.

* THESE STATIONS ARE NOT UNDER NWS QUALITY CONTROL. THEY ALSO MAY NOT
  REPORT WEATHER SUCH AS PRECIPITATION OR FOG.

ILZ005-006-012>014-019>023-142200-
NORTHEAST ILLINOIS

CITY           SKY/WX    TMP DP  RH WIND       PRES   REMARKS
OHARE          PTSUNNY   26   7  44 NW3       30.04S
MIDWAY         PTSUNNY   28  11  48 W5        30.05R WCI  23
AURORA         SUNNY     25  10  53 NW7       30.06R WCI  17
LANSING*       MOSUNNY   28  15  58 SW3       30.05R
JOLIET*        MOSUNNY   28   9  44 W3        30.06S
WAUKEGAN       MOSUNNY   26  10  50 NW6       30.03S WCI  19
DUPAGE AIRPORT SUNNY     25  10  53 NW6       30.04S WCI  18
WHEELING       SUNNY     27  10  49 CALM      30.06R
KANKAKEE*      PTSUNNY   28  14  54 W5        30.07R WCI  23
MORRIS*        CLOUDY    28   9  46 NW6       30.06R WCI  21
LEWIS AIRPORT* MOSUNNY   27   9  47 NW3       30.05S
NORTHERLY ISL    N/A     25  12  58 NE2         N/A
$$

WIZ051-052-058>065-066-070>072-142200-
SOUTHEAST WISCONSIN

CITY           SKY/WX    TMP DP  RH WIND       PRES   REMARKS
MILWAUKEE      MOSUNNY   24  10  55 W7        30.04S WCI  16
KENOSHA*       MOSUNNY   25  10  53 NW7       30.03S WCI  17
RACINE*        SUNNY     24   9  52 NW7       30.05S WCI  16
BURLINGTON     SUNNY     25  12  58 NW6       30.03S WCI  18
WAUKESHA       SUNNY     21   9  58 W9        30.02F WCI  11
WEST BEND      SUNNY     21  12  68 W6        30.02S WCI  14
$$

INZ001>003-010>013-019-020-142200-
NORTHWEST INDIANA

CITY           SKY/WX    TMP DP  RH WIND       PRES   REMARKS
GARY*          PTSUNNY   30  12  47 W7        30.05S WCI  23
MICHIGAN CITY* NOT AVBL
RENSSELAER*    NOT AVBL
VALPARAISO       N/A     28  18  66 SW8       30.04S WCI  20
$$

LMZ740>746-142200-
SOUTHERN LAKE MICHIGAN

STATION/POSITION TIME  SKY/WX   TEMP WIND        PRES    VSBY
                                AIR  DIR/SP/G
                 (UTC)          (F)  (DEG/KT/KT) (MB)    (MI)
HARRISON CRIB    1940            25  330/  9/ 11   N/A
BURNHAM HARBOR   2015            27  360/  3/ 11   N/A
CALUMET HARBOR   1948            27  350/  7/ 10 1016.5
BURNS HARBOR     1940            28  290/ 10/ 12 1017.3
MICHIGAN CITY    1940            22  140/  9/ 10   N/A
$$

ABBREVIATIONS USED IN REMARKS
   TC - TEMPERATURE IN CELSIUS
  WCI - WIND CHILL INDEX
   HX - HEAT INDEX
  VSB - VISIBILITY
$$



USA.gov is the U.S. government's official web portal to all federal, state and local government web resources and services.